Find Starlink 33729

NORAD ID: 63647 Int'l Des: 2025-083 Owner: SPXS Country: US Constellation: starlink operational
LEOCIRCULAR

当前视图

正在加载3D地球...

About Starlink 33729

Starlink 33729 (NORAD 63647) is a starlink constellation satellite (v2 mini) launched Apr 25, 2025 by SPXS of US. It operates in LEO, CIRCULAR orbit with a mass of 575.00 kg.

即将过境

Passes for default location (London). Set your location on the main map for personalized predictions.

高度历史

Loading altitude history...

两行轨道根数

1 63647U 25083P 26263.93750806 .00010923 00000-0 40566-3 0 9990
2 63647 43.0015 342.8825 0001688 267.0300 93.0359 15.27596176 79929
Epoch: Sep 20, 2026 • Age: 4 hours

当前状态

高度 491.4 km
远地点 / 近地点 N/A
速度 7.62 km/s
星下点 -33.40°S, 107.47°W
发射日期 Apr 25, 2025
运行时间 1.4 years
类型 internet

技术详情

分类 Payload
质量 575.00 kg
干质量 530.00 kg
长度 0.30 m
跨度 29.00 m
形状 ? Box + pan
制造商 SPXS
平台类型 Starlink V2MO
阶段状态 In Orbit
所有者/国家 SPXS/US

Most Searched